When you browse on this site, cookies collect data to enhance your experience and personalize the content and advertising you see.
Visit our Privacy Policy to learn more. By continuing to use the site, you agree to this use of cookies and data.
  • In Switzerland
  • List of Countries
  • For 7 days
  • Water Temperature
  • Satellite Maps
  • Weather Map
  • Weather Widgets
  • user-avatar
    Login

    Hourly Weather Zabudenovskiy

    Today, 16 November, Friday

    Time Temperature Precipitation Wind Pressure Humidity
    00:00 -2°C° 0.4 mm 8 mps 769 mmHg 88%
    01:00 -3°C° 0.3 mm 9 mps 769 mmHg 89%
    02:00 -3°C° 0.3 mm 9 mps 769 mmHg 89%
    03:00 -3°C° 0 mm 7 mps 769 mmHg 87%
    04:00 -4°C° 0.4 mm 8 mps 770 mmHg 88%
    05:00 -5°C° 0.4 mm 8 mps 770 mmHg 88%
    06:00 -5°C° 0.4 mm 9 mps 770 mmHg 88%
    07:00 -5°C° 0.2 mm 9 mps 770 mmHg 87%
    08:00 -4°C° 0.2 mm 9 mps 770 mmHg 86%
    09:00 -4°C° 0 mm 9 mps 771 mmHg 84%
    10:00 -4°C° 0 mm 9 mps 771 mmHg 86%
    11:00 -4°C° 0 mm 9 mps 771 mmHg 87%
    12:00 -3°C° 0 mm 9 mps 771 mmHg 88%
    13:00 -3°C° 0.1 mm 9 mps 771 mmHg 88%
    14:00 -2°C° 0.1 mm 8 mps 772 mmHg 89%
    15:00 -2°C° 0.1 mm 8 mps 772 mmHg 89%
    16:00 -4°C° 0.1 mm 8 mps 772 mmHg 89%
    17:00 -4°C° 0.1 mm 8 mps 772 mmHg 89%
    18:00 -4°C° 0.1 mm 8 mps 772 mmHg 90%
    19:00 -4°C° 0.1 mm 8 mps 772 mmHg 90%
    20:00 -2°C° 0.1 mm 8 mps 772 mmHg 90%
    21:00 -2°C° 0.1 mm 8 mps 772 mmHg 90%
    22:00 -2°C° 0.1 mm 8 mps 772 mmHg 89%
    23:00 -2°C° 0.1 mm 8 mps 772 mmHg 88%

    Tomorrow, 17 November, Saturday

    Time Temperature Precipitation Wind Pressure Humidity
    00:00 -2°C° 0.1 mm 8 mps 772 mmHg 87%
    01:00 -2°C° 0.2 mm 8 mps 772 mmHg 87%
    02:00 -3°C° 0.2 mm 7 mps 772 mmHg 87%
    03:00 -3°C° 0.2 mm 7 mps 772 mmHg 87%
    04:00 -3°C° 0.1 mm 7 mps 772 mmHg 85%
    05:00 -3°C° 0.1 mm 7 mps 772 mmHg 84%
    06:00 -3°C° 0.1 mm 6 mps 772 mmHg 83%
    07:00 -3°C° 0 mm 6 mps 772 mmHg 83%
    08:00 -3°C° 0 mm 6 mps 772 mmHg 83%
    09:00 -3°C° 0 mm 6 mps 773 mmHg 84%
    10:00 -3°C° 0 mm 6 mps 773 mmHg 85%
    11:00 -3°C° 0 mm 6 mps 772 mmHg 86%
    12:00 -2°C° 0 mm 6 mps 772 mmHg 88%
    13:00 -2°C° 0 mm 6 mps 772 mmHg 88%
    14:00 -1°C° 0 mm 5 mps 772 mmHg 89%
    15:00 -1°C° 0 mm 5 mps 772 mmHg 89%
    16:00 -2°C° 0 mm 5 mps 772 mmHg 89%
    17:00 -2°C° 0 mm 4 mps 772 mmHg 88%
    18:00 -2°C° 0 mm 4 mps 771 mmHg 88%
    19:00 -2°C° 0 mm 4 mps 771 mmHg 87%
    20:00 -2°C° 0 mm 3 mps 771 mmHg 86%
    21:00 -2°C° 0 mm 3 mps 771 mmHg 85%
    22:00 -2°C° 0 mm 3 mps 771 mmHg 84%
    23:00 -2°C° 0 mm 3 mps 770 mmHg 83%

    Day after tomorrow, 18 November, Sunday

    Time Temperature Precipitation Wind Pressure Humidity
    00:00 -2°C° 0 mm 2 mps 770 mmHg 82%
    01:00 -2°C° 0 mm 2 mps 770 mmHg 82%
    02:00 -3°C° 0 mm 2 mps 769 mmHg 82%
    03:00 -3°C° 0 mm 2 mps 769 mmHg 81%
    04:00 -3°C° 0 mm 2 mps 768 mmHg 81%
    05:00 -3°C° 0 mm 2 mps 768 mmHg 81%
    06:00 -3°C° 0 mm 2 mps 768 mmHg 80%
    07:00 0°C° 0 mm 1 mps 767 mmHg 79%
    08:00 0°C° 0 mm 1 mps 767 mmHg 78%
    09:00 0°C° 0 mm 1 mps 767 mmHg 77%
    10:00 +1°C° 0 mm 1 mps 767 mmHg 77%
    11:00 +2°C° 0 mm 1 mps 767 mmHg 76%
    12:00 +2°C° 0 mm 1 mps 767 mmHg 75%
    13:00 +1°C° 0 mm 0 mps 766 mmHg 76%
    14:00 +2°C° 0 mm 0 mps 766 mmHg 78%
    15:00 +2°C° 0 mm 0 mps 766 mmHg 80%
    16:00 +1°C° 0 mm 0 mps 766 mmHg 81%
    17:00 +1°C° 0 mm 0 mps 766 mmHg 83%
    18:00 0°C° 0 mm 0 mps 765 mmHg 84%
    19:00 0°C° 0 mm 0 mps 765 mmHg 86%
    20:00 +1°C° 0 mm 1 mps 765 mmHg 87%
    21:00 +2°C° 0 mm 1 mps 765 mmHg 88%
    22:00 +1°C° 0 mm 1 mps 765 mmHg 90%
    23:00 +1°C° 0 mm 1 mps 765 mmHg 91%

    19 November, Monday

    Time Temperature Precipitation Wind Pressure Humidity
    00:00 +1°C° 0 mm 1 mps 765 mmHg 92%
    01:00 +1°C° 0 mm 1 mps 765 mmHg 93%
    02:00 +1°C° 0 mm 1 mps 765 mmHg 94%
    03:00 +1°C° 0 mm 1 mps 765 mmHg 94%
    04:00 -1°C° 0 mm 2 mps 765 mmHg 95%
    05:00 -1°C° 0 mm 2 mps 765 mmHg 95%
    06:00 -1°C° 0 mm 2 mps 765 mmHg 95%
    07:00 -1°C° 0 mm 2 mps 766 mmHg 95%
    08:00 0°C° 0 mm 3 mps 766 mmHg 96%
    09:00 0°C° 0 mm 3 mps 766 mmHg 96%
    10:00 +1°C° 0 mm 3 mps 766 mmHg 95%
    11:00 +1°C° 0 mm 3 mps 766 mmHg 94%
    12:00 +1°C° 0 mm 4 mps 766 mmHg 93%
    13:00 +1°C° 0 mm 4 mps 766 mmHg 93%
    14:00 +1°C° 0 mm 4 mps 766 mmHg 92%
    15:00 +1°C° 0 mm 5 mps 766 mmHg 92%
    16:00 +1°C° 0 mm 5 mps 766 mmHg 92%
    17:00 0°C° 0 mm 5 mps 766 mmHg 92%
    18:00 0°C° 0 mm 5 mps 766 mmHg 92%
    19:00 0°C° 0 mm 5 mps 766 mmHg 90%
    20:00 0°C° 0 mm 5 mps 766 mmHg 87%
    21:00 0°C° 0 mm 5 mps 766 mmHg 85%
    22:00 -1°C° 0 mm 6 mps 766 mmHg 82%
    23:00 -1°C° 0 mm 6 mps 766 mmHg 79%

    20 November, Tuesday

    Time Temperature Precipitation Wind Pressure Humidity
    00:00 -1°C° 0 mm 6 mps 766 mmHg 77%
    01:00 -1°C° 0.1 mm 6 mps 766 mmHg 78%
    02:00 -1°C° 0.1 mm 6 mps 766 mmHg 80%
    03:00 -1°C° 0.1 mm 6 mps 766 mmHg 81%
    04:00 -1°C° 0.1 mm 7 mps 766 mmHg 84%
    05:00 -1°C° 0.1 mm 7 mps 766 mmHg 86%
    06:00 0°C° 0.1 mm 7 mps 766 mmHg 88%
    07:00 0°C° 0.1 mm 7 mps 766 mmHg 88%
    08:00 0°C° 0.1 mm 7 mps 766 mmHg 88%
    09:00 0°C° 0.1 mm 7 mps 766 mmHg 88%
    10:00 0°C° 0.1 mm 7 mps 766 mmHg 87%
    11:00 +2°C° 0.1 mm 7 mps 766 mmHg 86%
    12:00 +2°C° 0.1 mm 7 mps 766 mmHg 85%
    13:00 +2°C° 0.6 mm 7 mps 765 mmHg 86%
    14:00 +2°C° 0.6 mm 7 mps 765 mmHg 87%
    15:00 +3°C° 0.6 mm 6 mps 765 mmHg 88%
    16:00 +3°C° 0.8 mm 6 mps 765 mmHg 90%
    17:00 +3°C° 0.8 mm 6 mps 765 mmHg 91%
    18:00 +3°C° 0.8 mm 5 mps 765 mmHg 92%
    19:00 +3°C° 0.1 mm 5 mps 765 mmHg 93%
    20:00 +4°C° 0.1 mm 4 mps 765 mmHg 94%
    21:00 +4°C° 0.1 mm 4 mps 765 mmHg 95%
    22:00 +5°C° 0 mm 4 mps 765 mmHg 95%
    23:00 +5°C° 0 mm 3 mps 765 mmHg 96%

    21 November, Wednesday

    Time Temperature Precipitation Wind Pressure Humidity
    00:00 +5°C° 0 mm 3 mps 764 mmHg 96%
    01:00 +5°C° 0 mm 3 mps 764 mmHg 96%
    02:00 +5°C° 0 mm 3 mps 764 mmHg 96%
    03:00 +5°C° 0 mm 3 mps 764 mmHg 96%
    04:00 +5°C° 0 mm 3 mps 764 mmHg 96%
    05:00 +6°C° 0 mm 2 mps 763 mmHg 96%
    06:00 +6°C° 0 mm 2 mps 763 mmHg 96%
    07:00 +6°C° 0 mm 2 mps 763 mmHg 95%
    08:00 +6°C° 0 mm 2 mps 763 mmHg 94%
    09:00 +7°C° 0 mm 2 mps 763 mmHg 93%
    10:00 +7°C° 0 mm 2 mps 762 mmHg 90%
    11:00 +8°C° 0 mm 2 mps 762 mmHg 88%
    12:00 +9°C° 0 mm 3 mps 762 mmHg 85%
    13:00 +9°C° 0 mm 3 mps 761 mmHg 85%
    14:00 +9°C° 0 mm 3 mps 760 mmHg 85%
    15:00 +9°C° 0 mm 3 mps 760 mmHg 85%
    16:00 +9°C° 0.2 mm 3 mps 760 mmHg 87%
    17:00 +9°C° 0.2 mm 3 mps 759 mmHg 90%
    18:00 +8°C° 0.2 mm 3 mps 759 mmHg 92%
    19:00 +8°C° 0.2 mm 3 mps 759 mmHg 93%
    20:00 +7°C° 0.2 mm 4 mps 758 mmHg 93%
    21:00 +7°C° 0.2 mm 4 mps 758 mmHg 94%
    22:00 +8°C° 0.1 mm 3 mps 757 mmHg 94%
    23:00 +8°C° 0.1 mm 3 mps 757 mmHg 95%
    Show more